Location: Heilwood
(40.6210°N, 78.9150°W)
Time: 03:14:14
(UTC-04:00)

BREEZE-M DEB (TANK) - Visible Passes

Search period start: 19 October 2017 00:00
Search period end: 29 October 2017 00:00
Orbit: 297 x 15846 km, 49.5° (Epoch: 18 October)

Date Brightness Start Highest point End Pass type
(mag) Time Alt. Az. Time Alt. Az. Time Alt. Az.
19 Oct 7.4 20:44:51 10° NW 21:35:24 25° W 21:50:51 10° SW visible
20 Oct 7.5 20:47:09 10° NW 21:35:12 23° W 21:50:45 10° SW visible
21 Oct 7.6 20:49:30 10° NW 21:34:58 22° W 21:50:32 10° SW visible
22 Oct 7.7 20:51:57 10° NW 21:34:41 20° W 21:50:15 10° WSW visible
23 Oct 7.8 20:54:31 10° NW 21:34:21 19° W 21:49:50 10° WSW visible
24 Oct 7.9 20:57:13 10° NW 21:33:59 18° WNW 21:49:16 10° WSW visible
25 Oct 7.9 21:00:06 10° NW 21:33:33 16° WNW 21:48:32 10° WSW visible
26 Oct 8.0 21:03:14 10° NW 21:33:05 15° WNW 21:47:33 10° WSW visible
27 Oct 8.2 21:06:42 10° NW 21:32:34 14° WNW 21:46:15 10° W visible
28 Oct 10.2 04:49:18 10° ENE 05:05:40 11° ENE 05:22:07 10° NE visible
28 Oct 8.3 21:10:40 10° NW 21:31:59 13° WNW 21:44:29 10° W visible
